Tracking 19484 objects as of 20-Jan-2019
HD Live streaming from Space Station
objects crossing your sky now

RADUGA 23

Track RADUGA 23 now!
RADUGA 23 is classified as:


NORAD ID: 19928
Int'l Code: 1989-030A
Perigee: 35,754.9 km
Apogee: 35,881.8 km
Inclination: 14.6 °
Period: 1,437.4 minutes
Semi major axis: 42189 km
RCS: 3.1622 m2 (large)
Launch date: April 14, 1989
Source: Commonwealth of Independent States (former USSR) (CIS)
Launch site: TYURATAM MISSILE AND SPACE COMPLEX (TTMTR)
aabbcc
Your satellite tracking list
Your tracking list is empty




NASA's NSSDC Master Catalog

Two Line Element Set (TLE):
1 19928U 89030A   19019.96484233 -.00000199  00000-0  00000+0 0  9997
2 19928  14.5958 353.9943 0015040 129.7856  69.5928  1.00184237107718
Source of the keplerian elements: AFSPC